Weather History for Juliana Airport, Saint Maarten, Saint Maartin

Change the Weather History Date:

Friday, September 13, 2013

  Actual Average Record
Temperature  
Mean Temperature 84 °F -  
Max Temperature 89 °F 87 °F - ()
Min Temperature 79 °F 77 °F - ()
Cooling Degree Days 19    
Growing Degree Days 34 (Base 50)    
Moisture  
Dew Point 73 °F    
Average Humidity 68    
Maximum Humidity 79    
Minimum Humidity 44    
Precipitation  
Precipitation 0.01 in 0.16 in - ()
Sea Level Pressure  
Sea Level Pressure 29.78 in    
Wind  
Wind Speed 8 mph ()    
Max Wind Speed 14 mph    
Max Gust Speed -    
Visibility 7.2 miles    
Events Rain    
T = Trace of Precipitation, MM = Missing Value Source: Averaged Metar Reports

Daily Weather History Graph

Daily Weather History Graph

Search for Another Location

Airport:

Trip Planner

Search our weather history database for the weather conditions in past years. The results will help you decide how hot, cold, wet, or windy it might be!

Date:

Astronomy

Sep. 13, 2013 Rise Set
Actual Time 6:00 AM AST 6:16 PM AST
Civil Twilight 5:38 AM AST 6:37 PM AST
Nautical Twilight 5:12 AM AST 7:03 PM AST
Astronomical Twilight 4:47 AM AST 7:28 PM AST
Moon 1:26 PM AST (9/13) 12:01 AM AST (9/13)
Length of Visible Light 12h 59m
Length of Day
12h 16m
First Quarter, 61% of the Moon is Illuminated
Sep 13
First Quarter
Sep 19
Full
Sep 26
Last Quarter
Oct 4
New
Oct 11
First Quarter

Hourly Weather History & Observations

Time (AST) Temp. Heat Index Dew Point Humidity Pressure Visibility Wind Dir Wind Speed Gust Speed Precip Events Conditions
12:00 AM 82.4 °F 88.2 °F 73.4 °F 74% 29.77 in 6.2 mi NE 10.4 mph - N/A   Partly Cloudy
1:00 AM 82.4 °F 88.2 °F 73.4 °F 74% 29.77 in 6.2 mi NE 6.9 mph - N/A   Scattered Clouds
2:00 AM 82 °F - 74 °F 72% 29.76 in 22 mi ENE 8.1 mph - -   Partly Cloudy
2:00 AM 82.4 °F 88.2 °F 73.4 °F 74% 29.74 in 6.2 mi ENE 8.1 mph - N/A   Partly Cloudy
3:00 AM 82.4 °F 88.2 °F 73.4 °F 74% 29.74 in 6.2 mi NE 8.1 mph - N/A   Partly Cloudy
4:00 AM 80.6 °F 85.4 °F 73.4 °F 79% 29.74 in 6.2 mi Variable 2.3 mph - N/A   Scattered Clouds
5:00 AM 81 °F - 72 °F 67% 29.77 in 22 mi East 6.9 mph - - Rain Light Rain Showers
5:00 AM 80.6 °F 84.6 °F 71.6 °F 74% 29.74 in 6.2 mi East 6.9 mph - N/A Rain Light Rain Showers
6:00 AM 80.6 °F 85.4 °F 73.4 °F 79% 29.77 in 6.2 mi East 8.1 mph - N/A Rain Light Rain Showers
7:00 AM 82.4 °F 89.5 °F 75.2 °F 79% 29.77 in 6.2 mi ENE 6.9 mph - N/A   Scattered Clouds
8:00 AM 85 °F - 75 °F 65% 29.81 in 34 mi ENE 8.1 mph - -   Partly Cloudy
8:00 AM 84.2 °F 92.3 °F 75.2 °F 74% 29.80 in 6.2 mi ENE 8.1 mph - N/A   Partly Cloudy
9:00 AM 86.0 °F 93.4 °F 73.4 °F 66% 29.80 in 6.2 mi East 10.4 mph - N/A   Partly Cloudy
10:00 AM 87.8 °F 95.6 °F 73.4 °F 62% 29.83 in 6.2 mi East 11.5 mph - N/A   Scattered Clouds
11:00 AM 89.6 °F 98.2 °F 73.4 °F 59% 29.80 in 6.2 mi East 11.5 mph - N/A   Scattered Clouds
12:00 PM 89.6 °F 96.2 °F 71.6 °F 55% 29.80 in 6.2 mi ESE 10.4 mph - N/A   Scattered Clouds
1:00 PM 89.6 °F 96.2 °F 71.6 °F 55% 29.80 in 6.2 mi ENE 10.4 mph - N/A   Scattered Clouds
2:00 PM 89 °F - 70 °F 44%  in 34 mi East 11.5 mph - -  
2:00 PM 87.8 °F 93.8 °F 71.6 °F 58% 29.77 in 6.2 mi East 10.4 mph - N/A   Scattered Clouds
3:00 PM 89.6 °F 96.2 °F 71.6 °F 55% 29.77 in 6.2 mi East 8.1 mph - N/A   Scattered Clouds
4:00 PM 87.8 °F 93.8 °F 71.6 °F 58% 29.74 in 6.2 mi East 9.2 mph - N/A   Scattered Clouds
5:00 PM 83 °F - 73 °F 66% 29.77 in 34 mi ENE 13.8 mph - - Rain Light Rain Showers
5:00 PM 84.2 °F 90.9 °F 73.4 °F 70% 29.77 in 6.2 mi ENE 13.8 mph - N/A   Scattered Clouds
6:00 PM 84.2 °F 90.9 °F 73.4 °F 70% 29.77 in 6.2 mi ENE 9.2 mph - N/A   Partly Cloudy
7:00 PM 82.4 °F 88.2 °F 73.4 °F 74% 29.80 in 6.2 mi ENE 6.9 mph - N/A   Partly Cloudy
8:00 PM 83 °F - 74 °F 67% 29.82 in 19 mi ENE 8.1 mph - -   Partly Cloudy
8:00 PM 82.4 °F 88.2 °F 73.4 °F 74% 29.80 in 6.2 mi ENE 8.1 mph - N/A   Partly Cloudy
9:00 PM 82.4 °F 88.2 °F 73.4 °F 74% 29.83 in 6.2 mi East 9.2 mph - N/A   Scattered Clouds
10:00 PM 82.4 °F 88.2 °F 73.4 °F 74% 29.83 in 6.2 mi East 6.9 mph - N/A   Scattered Clouds
11:00 PM 82 °F - 74 °F 72% 29.85 in 19 mi East 9.2 mph - -   Partly Cloudy
11:00 PM 82.4 °F 89.5 °F 75.2 °F 79% 29.71 in 6.2 mi East 9.2 mph - N/A   Scattered Clouds